DateTimeUTC,F1_A11,F1_S11,BsB_S11,BsG_S11,BsR_S11,BbsB_S11,BbsG_S11,BbsR_S11,BaB_A11,BaG_A11,BaR_A11,Tu_S11,T_S11,Uu_S11,U_S11,P_S11,T1_A11
2021-07-10T06:00:00Z,00000200,21000000,,,,,,,-000.27,-000.03,-000.11,17.6,24.8,,00.0,0674.4,31.0
2021-07-10T06:01:00Z,00000200,21000000,,,,,,,0000.23,0000.15,0000.01,17.6,24.8,,00.0,0674.4,31.0
2021-07-10T06:02:00Z,00000200,21000000,,,,,,,-000.36,-000.13,0000.19,17.5,24.8,,00.0,0674.4,31.0
2021-07-10T06:03:00Z,00000200,61000000,,,,,,,0000.53,0000.23,-000.01,17.5,24.8,,00.0,0674.4,31.0
2021-07-10T06:04:00Z,00000200,41000000,0000.66,0000.31,0000.11,0000.58,0000.33,-000.31,0000.32,0000.24,0000.35,17.6,24.5,00.1,00.1,0675.4,31.0
2021-07-10T06:05:00Z,00000200,01000000,-000.04,0000.48,0000.07,-000.21,0000.11,0000.02,0000.26,0000.28,-000.06,17.7,24.5,00.0,00.0,0675.5,31.0
2021-07-10T06:06:00Z,00000200,01000000,0000.82,0000.43,-000.20,-000.73,0000.13,-000.57,0000.41,0000.25,0000.42,17.8,24.5,00.1,00.0,0675.5,31.0
2021-07-10T06:07:00Z,00000200,01000000,0000.62,0000.45,0000.18,0000.29,0000.39,-000.07,0000.10,0000.28,0000.39,17.9,24.6,00.1,00.1,0675.5,31.0
2021-07-10T06:08:00Z,00000200,01000000,-000.42,0000.04,0000.04,0000.17,0000.52,-000.09,0000.20,0000.18,-000.19,18.0,24.6,00.1,00.1,0675.5,31.0
2021-07-10T06:09:00Z,00000200,01000000,0000.37,0000.16,0000.20,-000.26,0000.31,0000.04,0000.33,0000.47,0000.64,18.1,24.6,00.2,00.1,0675.5,31.0
2021-07-10T06:10:00Z,00000200,01000000,0000.52,0000.29,0000.01,0000.06,0000.23,-000.23,-000.00,-000.09,-000.39,18.1,24.6,00.3,00.2,0675.5,31.0
2021-07-10T06:11:00Z,00000200,01000000,-000.30,0000.49,0000.01,-000.73,0000.24,-000.13,-000.02,-000.02,0000.04,18.0,24.6,00.3,00.2,0675.5,31.0
2021-07-10T06:12:00Z,00000200,01000000,-000.20,0000.58,0000.17,-000.23,-000.02,0000.02,0000.18,0000.32,0000.20,18.0,24.6,00.3,00.2,0675.5,31.0
2021-07-10T06:13:00Z,00000200,01000000,0000.77,0000.19,0000.15,-000.28,-000.09,-000.07,0000.58,0000.19,0000.37,17.9,24.6,00.4,00.3,0675.5,31.0
2021-07-10T06:14:00Z,00000200,01000000,-000.43,0000.29,-000.05,0000.03,0000.17,-000.33,0000.17,0000.34,0000.07,17.9,24.6,00.5,00.3,0675.5,31.0
2021-07-10T06:15:00Z,00000200,01000000,0000.80,0000.49,0000.15,0000.09,0000.39,-000.30,-000.12,-000.32,-000.31,17.9,24.5,00.5,00.3,0675.5,31.0
2021-07-10T06:16:00Z,00000200,01000000,-000.35,0000.10,0000.15,-000.41,0000.30,0000.11,0000.10,0000.20,0000.19,17.8,24.6,00.5,00.4,0675.5,31.0
2021-07-10T06:17:00Z,00000200,01000000,0000.37,0000.72,0000.26,0000.03,0000.40,0000.11,0000.31,-000.02,0000.19,17.8,24.5,00.5,00.4,0675.5,31.0
2021-07-10T06:18:00Z,00000200,01000000,0000.33,0000.07,0000.09,-000.65,0000.03,-000.00,0000.18,0000.54,-000.11,17.8,24.5,00.4,00.3,0675.5,31.0
2021-07-10T06:19:00Z,00000200,01000000,0001.12,0000.02,0000.26,-000.43,0000.21,-000.08,0000.45,0000.19,0000.75,17.8,24.5,00.6,00.4,0675.5,31.0
2021-07-10T06:20:00Z,00000200,01000000,0000.01,0000.56,0000.10,-000.14,0000.29,0000.08,0000.25,0000.27,0000.09,17.8,24.5,00.6,00.4,0675.5,31.0
2021-07-10T06:21:00Z,00000200,01000000,0000.53,0000.23,-000.05,-000.19,-000.11,-000.17,0000.22,0000.18,0000.33,17.9,24.5,00.7,00.5,0675.5,31.0
2021-07-10T06:22:00Z,00000200,01000000,0000.83,0000.28,0000.28,-000.02,0000.25,-000.15,0000.37,0000.41,0000.17,18.0,24.6,00.8,00.5,0675.5,31.0
2021-07-10T06:23:00Z,00000200,01000000,0000.01,0000.52,0000.08,0000.01,0000.48,-000.34,0000.03,0000.09,-000.07,18.0,24.6,00.9,00.6,0675.5,31.0
2021-07-10T06:24:00Z,00000200,01000000,-000.24,-000.06,-000.10,-000.15,0000.10,-000.19,0000.05,-000.21,0000.36,18.0,24.6,01.0,00.7,0675.5,31.0
2021-07-10T06:25:00Z,00000200,01000000,-000.10,0000.34,-000.01,-000.41,0000.24,0000.25,0000.48,0000.39,0000.28,17.9,24.6,01.1,00.8,0675.5,31.0
2021-07-10T06:26:00Z,00000200,01000000,0000.49,0000.15,0000.15,-000.30,0000.11,-000.02,0000.25,0000.54,0000.12,17.9,24.5,01.4,00.9,0675.5,31.0
2021-07-10T06:27:00Z,00000200,01000000,0000.13,0000.45,0000.45,-000.17,0000.13,-000.01,-000.01,-000.19,-000.19,17.9,24.5,01.3,00.9,0675.5,31.0
2021-07-10T06:28:00Z,00000200,01000000,0000.57,0000.52,0000.31,0000.20,-000.06,-000.14,0000.05,0000.15,0000.18,17.8,24.5,01.3,00.9,0675.5,31.0
2021-07-10T06:29:00Z,00000200,01000000,0000.58,0000.43,0000.23,-000.58,0000.45,-000.36,0000.22,0000.20,-000.10,17.8,24.5,01.4,00.9,0675.5,31.0
2021-07-10T06:30:00Z,00000200,01000000,0000.14,0000.14,0000.01,0000.12,0000.64,0000.04,-000.19,-000.14,0000.19,17.8,24.5,01.4,00.9,0675.5,31.0
2021-07-10T06:31:00Z,00000200,01000000,0000.04,0000.20,0000.28,0000.06,0000.07,0000.05,-000.21,-000.34,-000.21,17.7,24.5,01.1,00.7,0675.6,31.0
2021-07-10T06:32:00Z,00000200,01000000,0000.34,-000.13,0000.15,0000.44,0000.15,-000.07,0000.57,0000.44,0000.12,17.7,24.4,01.1,00.8,0675.5,31.0
2021-07-10T06:33:00Z,00000200,01000000,0000.05,-000.15,0000.12,-000.36,0000.25,-000.29,0000.34,0000.54,0000.31,17.7,24.4,01.4,00.9,0675.5,31.0
2021-07-10T06:34:00Z,00000200,01000000,0000.38,0000.20,0000.14,-000.15,-000.05,-000.40,-000.22,0000.32,0000.08,17.7,24.4,01.4,00.9,0675.6,31.0
2021-07-10T06:35:00Z,00000200,01000000,0000.63,0000.50,0000.13,-000.49,0000.36,0000.04,0000.67,-000.25,0000.55,17.8,24.4,01.4,01.0,0675.6,31.0
2021-07-10T06:36:00Z,00000200,01000000,0000.05,0000.33,0000.07,0000.38,0000.07,0000.03,-000.27,0000.10,-000.30,17.8,24.4,01.5,01.0,0675.6,31.0
2021-07-10T06:37:00Z,00000200,01000000,-000.53,0000.15,0000.32,0000.21,0000.11,-000.27,0000.39,0000.20,0000.38,17.9,24.5,01.4,00.9,0675.6,31.0
2021-07-10T06:38:00Z,00000200,01000000,0000.51,-000.01,0000.26,0000.55,0000.13,-000.19,0000.58,0000.22,-000.08,18.0,24.5,01.4,00.9,0675.6,31.0
2021-07-10T06:39:00Z,00000200,01000000,0000.65,0000.28,0000.14,0000.11,0000.13,0000.04,-000.16,-000.17,0000.38,18.0,24.5,01.6,01.0,0675.6,31.0
2021-07-10T06:40:00Z,00000200,01000000,-000.60,0000.23,-000.08,-000.40,0000.19,-000.02,-000.23,-000.06,-000.31,17.9,24.5,01.6,01.0,0675.6,31.0
2021-07-10T06:41:00Z,00000200,01000000,0001.22,0000.27,0000.15,-000.10,0000.35,0000.20,0000.14,0000.51,0000.12,17.9,24.5,01.7,01.1,0675.6,31.0
2021-07-10T06:42:00Z,00000200,01000000,0000.72,-000.02,0000.28,-000.32,0000.33,-000.36,-000.00,0000.18,0000.17,17.9,24.5,01.5,01.0,0675.6,31.0
2021-07-10T06:43:00Z,00000200,01000000,-000.03,-000.06,0000.09,-000.69,0000.32,-000.12,0000.04,-000.47,0000.15,17.8,24.5,01.6,01.1,0675.6,31.0
2021-07-10T06:44:00Z,00000200,01000000,0000.36,0000.13,0000.09,0000.37,0000.06,-000.36,-000.15,0000.50,-000.20,17.8,24.5,01.6,01.0,0675.7,31.0
2021-07-10T06:45:00Z,00000200,01000000,0000.41,0000.25,0000.24,0000.36,0000.15,0000.05,0000.48,-000.28,0000.03,17.8,24.4,01.6,01.1,0675.7,31.0
2021-07-10T06:46:00Z,00000200,01000000,0000.26,0000.06,-000.01,-000.13,-000.25,0000.13,-000.21,-000.30,-000.10,17.7,24.4,01.6,01.0,0675.7,31.0
2021-07-10T06:47:00Z,00000200,01000000,-000.42,0000.14,-000.08,-000.28,-000.03,-000.28,0000.05,0000.29,0000.22,17.7,24.4,01.5,01.0,0675.7,31.0
2021-07-10T06:48:00Z,00000200,01000000,0000.39,0000.39,0000.24,-000.56,0000.19,-000.32,0000.07,0000.21,-000.11,17.7,24.4,01.4,00.9,0675.7,31.0
2021-07-10T06:49:00Z,00000200,01000000,0000.48,0000.13,0000.10,-000.25,0000.03,-000.35,0000.07,-000.21,0000.10,17.7,24.4,01.4,00.9,0675.7,31.0
2021-07-10T06:50:00Z,00000200,01000000,0000.43,0000.39,0000.06,-000.13,0000.10,-000.35,0000.49,0000.53,0000.16,17.8,24.4,01.3,00.9,0675.7,31.0
2021-07-10T06:51:00Z,00000200,01000000,0000.05,0000.20,-000.21,-000.33,0000.09,-000.19,-000.22,0000.31,0000.12,17.9,24.4,01.3,00.9,0675.8,31.0
2021-07-10T06:52:00Z,00000200,01000000,0000.01,0000.05,0000.25,0000.40,0000.14,-000.01,0000.24,-000.42,-000.08,18.0,24.5,01.4,01.0,0675.8,31.0
2021-07-10T06:53:00Z,00000200,01000000,-000.42,0000.13,0000.15,0000.15,0000.63,-000.25,0000.04,0000.35,0000.33,18.0,24.5,01.4,00.9,0675.8,31.0
2021-07-10T06:54:00Z,00000200,01000000,-000.69,0000.12,-000.09,-000.13,0000.08,-000.04,0000.12,0000.15,-000.07,18.1,24.5,01.5,01.0,0675.8,31.0
2021-07-10T06:55:00Z,00000200,01000000,-000.07,0000.14,0000.31,-000.22,-000.07,-000.01,-000.14,0000.07,0000.16,18.0,24.5,01.6,01.0,0675.7,31.0
2021-07-10T06:56:00Z,00000200,01000000,-000.19,0000.05,0000.02,-000.15,0000.44,-000.32,0000.25,-000.24,-000.02,18.0,24.5,01.6,01.1,0675.8,31.0
2021-07-10T06:57:00Z,00000200,40000000,,,,,,,-000.38,-000.07,-000.21,18.0,24.6,01.9,01.3,0675.8,31.0
2021-07-10T06:58:00Z,00000200,61000000,,,,,,,0000.14,0000.20,-000.03,17.7,24.7,01.3,00.8,0674.8,31.0
2021-07-10T06:59:00Z,00000200,21000000,,,,,,,0000.29,0000.05,-000.04,17.6,24.8,01.2,00.8,0674.8,31.0
